Weather History for Sturgeon Bay, WI

Change the Weather History Date:

Monday, October 8, 2012

  Actual Average Record
Temperature  
Mean Temperature 45 °F -  
Max Temperature 59 °F 58 °F 84 °F (2007)
Min Temperature 33 °F 43 °F 25 °F (1989)
Degree Days  
Heating Degree Days 20    
Moisture  
Dew Point 27 °F    
Average Humidity 47    
Maximum Humidity 60    
Minimum Humidity 29    
Precipitation  
Precipitation 0.00 in - - ()
Sea Level Pressure  
Sea Level Pressure 29.92 in    
Wind  
Wind Speed 13 mph (SSW)    
Max Wind Speed 24 mph    
Max Gust Speed 33 mph    
Visibility 10 miles    
Events      
Averages and records for this station are not official NWS values.
T = Trace of Precipitation, MM = Missing Value Source: NWS Daily Summary

Daily Weather History Graph

Daily Weather History Graph

Search for Another Location

Airport:

Trip Planner

Search our weather history database for the weather conditions in past years. The results will help you decide how hot, cold, wet, or windy it might be!

Date:

Astronomy

Oct. 08, 2012 Rise Set
Actual Time 6:56 AM CDT 6:16 PM CDT
Civil Twilight 6:27 AM CDT 6:45 PM CDT
Nautical Twilight 5:53 AM CDT 7:19 PM CDT
Astronomical Twilight 5:19 AM CDT 7:53 PM CDT
Moon No Moon Rise 2:21 PM CDT (10/8)
Length of Visible Light 12h 18m
Length of Day
11h 19m
Last Quarter, 46% of the Moon is Illuminated
Oct 8
Last Quarter
Oct 15
New
Oct 21
First Quarter
Oct 29
Full
Nov 6
Last Quarter

Hourly Weather History & Observations

Time (CDT) Temp. Windchill Dew Point Humidity Pressure Visibility Wind Dir Wind Speed Gust Speed Precip Events Conditions
12:15 AM 37.4 °F 31.4 °F 19.4 °F 48% 30.02 in 10.0 mi SSW 8.1 mph - N/A   Clear
12:35 AM 37.4 °F 31.4 °F 19.4 °F 48% 30.02 in 10.0 mi South 8.1 mph - N/A   Clear
12:55 AM 35.6 °F 29.2 °F 19.4 °F 52% 30.02 in 10.0 mi SSW 8.1 mph - N/A   Clear
1:15 AM 35.6 °F 29.2 °F 19.4 °F 52% 30.02 in 10.0 mi SSW 8.1 mph - N/A   Clear
1:35 AM 35.6 °F 29.2 °F 19.4 °F 52% 30.02 in 10.0 mi SSW 8.1 mph - N/A   Clear
1:55 AM 35.6 °F 29.2 °F 19.4 °F 52% 30.02 in 10.0 mi SSW 8.1 mph - N/A   Clear
2:15 AM 35.6 °F 29.9 °F 19.4 °F 52% 30.02 in 10.0 mi South 6.9 mph - N/A   Clear
2:35 AM 35.6 °F 29.2 °F 19.4 °F 52% 30.02 in 10.0 mi SSW 8.1 mph - N/A   Clear
2:55 AM 33.8 °F 27.0 °F 19.4 °F 56% 30.01 in 10.0 mi SSW 8.1 mph - N/A   Clear
3:15 AM 33.8 °F 27.0 °F 21.2 °F 60% 30.01 in 10.0 mi SSW 8.1 mph - N/A   Clear
3:35 AM 33.8 °F 27.0 °F 21.2 °F 60% 30.01 in 10.0 mi SSW 8.1 mph - N/A   Clear
3:55 AM 33.8 °F 26.4 °F 21.2 °F 60% 30.01 in 10.0 mi SSW 9.2 mph - N/A   Clear
4:15 AM 33.8 °F 26.4 °F 21.2 °F 60% 30.00 in 10.0 mi SSW 9.2 mph - N/A   Clear
4:35 AM 33.8 °F 27.0 °F 21.2 °F 60% 30.00 in 10.0 mi South 8.1 mph - N/A   Clear
4:55 AM 33.8 °F 27.0 °F 21.2 °F 60% 30.00 in 10.0 mi SSW 8.1 mph - N/A   Clear
5:15 AM 33.8 °F 26.4 °F 21.2 °F 60% 30.00 in 10.0 mi SSW 9.2 mph - N/A   Clear
5:35 AM 33.8 °F 26.4 °F 21.2 °F 60% 29.99 in 10.0 mi South 9.2 mph - N/A   Clear
5:55 AM 33.8 °F 25.8 °F 21.2 °F 60% 29.99 in 10.0 mi SSW 10.4 mph - N/A   Clear
6:15 AM 35.6 °F 28.0 °F 21.2 °F 56% 29.99 in 10.0 mi SSW 10.4 mph - N/A   Clear
6:35 AM 35.6 °F 28.0 °F 19.4 °F 52% 29.99 in 10.0 mi SSW 10.4 mph - N/A   Clear
6:55 AM 35.6 °F 27.5 °F 19.4 °F 52% 29.99 in 10.0 mi SSW 11.5 mph - N/A   Clear
7:15 AM 37.4 °F 29.8 °F 19.4 °F 48% 29.98 in 10.0 mi SSW 11.5 mph - N/A   Clear
7:35 AM 37.4 °F 29.8 °F 21.2 °F 52% 29.98 in 10.0 mi SSW 11.5 mph - N/A   Clear
7:55 AM 39.2 °F 31.6 °F 21.2 °F 49% 29.99 in 10.0 mi SSW 12.7 mph - N/A   Clear
8:15 AM 42.8 °F 35.8 °F 21.2 °F 42% 29.98 in 10.0 mi SSW 13.8 mph - N/A   Clear
8:35 AM 44.6 °F 37.8 °F 21.2 °F 39% 29.98 in 10.0 mi SSW 15.0 mph - N/A   Clear
8:55 AM 46.4 °F 40.4 °F 23.0 °F 40% 29.98 in 10.0 mi SW 13.8 mph 20.7 mph N/A   Clear
9:15 AM 46.4 °F 40.7 °F 23.0 °F 40% 29.98 in 10.0 mi SW 12.7 mph 23.0 mph N/A   Clear
9:35 AM 48.2 °F - 24.8 °F 40% 29.97 in 10.0 mi SSW 13.8 mph 21.9 mph N/A   Clear
9:55 AM 51.8 °F - 24.8 °F 35% 29.97 in 10.0 mi SSW 17.3 mph 23.0 mph N/A   Clear
10:15 AM 51.8 °F - 26.6 °F 38% 29.96 in 10.0 mi SSW 11.5 mph 17.3 mph N/A   Clear
10:35 AM 53.6 °F - 26.6 °F 35% 29.96 in 10.0 mi SSW 11.5 mph 21.9 mph N/A   Clear
10:55 AM 55.4 °F - 26.6 °F 33% 29.95 in 10.0 mi SSW 19.6 mph - N/A   Partly Cloudy
11:15 AM 55.4 °F - 26.6 °F 33% 29.95 in 10.0 mi SSW 20.7 mph 27.6 mph N/A   Mostly Cloudy
11:35 AM 55.4 °F - 26.6 °F 33% 29.94 in 10.0 mi SSW 21.9 mph 28.8 mph N/A   Mostly Cloudy
11:55 AM 57.2 °F - 26.6 °F 31% 29.93 in 10.0 mi SSW 19.6 mph 29.9 mph N/A   Mostly Cloudy
12:15 PM 57.2 °F - 26.6 °F 31% 29.93 in 10.0 mi SSW 20.7 mph 32.2 mph N/A   Partly Cloudy
12:35 PM 57.2 °F - 26.6 °F 31% 29.92 in 10.0 mi South 16.1 mph 33.4 mph N/A   Mostly Cloudy
12:55 PM 57.2 °F - 24.8 °F 29% 29.91 in 10.0 mi SSW 24.2 mph 32.2 mph N/A   Overcast
1:15 PM 57.2 °F - 24.8 °F 29% 29.89 in 10.0 mi SSW 20.7 mph 32.2 mph N/A   Overcast
1:35 PM 57.2 °F - 26.6 °F 31% 29.89 in 10.0 mi South 20.7 mph 27.6 mph N/A   Overcast
1:55 PM 57.2 °F - 26.6 °F 31% 29.88 in 10.0 mi South 20.7 mph 28.8 mph N/A   Overcast
2:15 PM 57.2 °F - 30.2 °F 36% 29.88 in 10.0 mi South 17.3 mph 27.6 mph N/A   Mostly Cloudy
2:35 PM 55.4 °F - 33.8 °F 44% 29.87 in 10.0 mi South 21.9 mph 33.4 mph N/A   Mostly Cloudy
2:55 PM 55.4 °F - 33.8 °F 44% 29.87 in 10.0 mi South 23.0 mph 28.8 mph N/A   Mostly Cloudy
3:15 PM 55.4 °F - 33.8 °F 44% 29.87 in 10.0 mi South 18.4 mph 27.6 mph N/A   Overcast
3:35 PM 53.6 °F - 33.8 °F 47% 29.86 in 10.0 mi South 20.7 mph 29.9 mph N/A   Overcast
3:55 PM 53.6 °F - 33.8 °F 47% 29.85 in 10.0 mi South 20.7 mph 32.2 mph N/A   Overcast
4:15 PM 53.6 °F - 33.8 °F 47% 29.85 in 10.0 mi South 20.7 mph 29.9 mph N/A   Overcast
4:35 PM 53.6 °F - 33.8 °F 47% 29.85 in 10.0 mi South 17.3 mph 29.9 mph N/A   Overcast
4:55 PM 53.6 °F - 35.6 °F 51% 29.84 in 10.0 mi South 21.9 mph 28.8 mph N/A   Overcast
5:15 PM 53.6 °F - 37.4 °F 54% 29.84 in 10.0 mi South 18.4 mph 31.1 mph N/A   Overcast
5:35 PM 53.6 °F - 37.4 °F 54% 29.84 in 10.0 mi South 20.7 mph 33.4 mph N/A   Overcast
5:55 PM 53.6 °F - 37.4 °F 54% 29.84 in 10.0 mi South 19.6 mph 31.1 mph N/A   Overcast
6:15 PM 53.6 °F - 37.4 °F 54% 29.83 in 10.0 mi South 18.4 mph 27.6 mph N/A   Overcast
6:35 PM 53.6 °F - 39.2 °F 58% 29.83 in 10.0 mi South 18.4 mph 25.3 mph N/A   Overcast
6:55 PM 53.6 °F - 39.2 °F 58% 29.82 in 10.0 mi South 18.4 mph 24.2 mph N/A   Overcast
7:15 PM 53.6 °F - 39.2 °F 58% 29.82 in 10.0 mi South 17.3 mph 24.2 mph N/A   Overcast
7:35 PM 53.6 °F - 39.2 °F 58% 29.82 in 10.0 mi South 18.4 mph 24.2 mph N/A   Overcast
7:55 PM 53.6 °F - 37.4 °F 54% 29.82 in 10.0 mi South 17.3 mph 23.0 mph N/A   Overcast
8:15 PM 53.6 °F - 35.6 °F 51% 29.84 in 10.0 mi South 15.0 mph 19.6 mph N/A   Overcast
8:35 PM 55.4 °F - 32.0 °F 41% 29.83 in 10.0 mi South 18.4 mph 25.3 mph N/A   Overcast
9:15 PM 55.4 °F - 30.2 °F 38% 29.83 in 10.0 mi South 16.1 mph 24.2 mph N/A   Overcast
9:35 PM 53.6 °F - 30.2 °F 41% 29.83 in 10.0 mi South 19.6 mph 26.5 mph N/A   Overcast
9:55 PM 53.6 °F - 30.2 °F 41% 29.83 in 10.0 mi South 18.4 mph 23.0 mph N/A   Overcast
10:15 PM 53.6 °F - 30.2 °F 41% 29.83 in 10.0 mi South 16.1 mph 24.2 mph N/A   Overcast
10:55 PM 53.6 °F - 30.2 °F 41% 29.81 in 10.0 mi South 16.1 mph - N/A   Mostly Cloudy
11:35 PM 53.6 °F - 28.4 °F 38% 29.80 in 10.0 mi South 16.1 mph 23.0 mph N/A   Overcast
11:55 PM 53.6 °F - 28.4 °F 38% 29.80 in 10.0 mi South 17.3 mph 24.2 mph N/A   Mostly Cloudy